Location: Amherst
(42.5000°N, 72.5000°W)
Time: 02:17:17
(UTC-04:00)

ISS - Pass Details

Date: 19 July 2018
Orbit: 402 x 408 km, 51.6° (Epoch: 16 July)

Event Time Altitude Azimuth Distance (km) Brightness Sun altitude
Rises 03:18:52 0° 307° (NW) 2,330 0.1 -18.6°
Reaches altitude 10° 03:21:07 10° 318° (NW) 1,469 -0.9 -18.4°
Maximum altitude 03:24:04 30° 22° (NNE) 768 -1.7 -18.1°
Drops below altitude 10° 03:27:01 10° 85° (E) 1,466 -0.4 -17.8°
Sets 03:29:15 0° 97° (E) 2,325 0.4 -17.5°
